Location: Maiden
(35.5760°N, 81.2120°W)
Time: 20:35:10
(UTC-04:00)

Hubble Space Telescope - Pass Details

Date: 14 June 2018
Orbit: 537 x 541 km, 28.5° (Epoch: 24 June)

Event Time Altitude Azimuth Distance (km) Brightness Sun altitude
Rises 21:27:28 0° 244° (WSW) 2,670 4.7 -8.6°
Reaches altitude 10° 21:29:57 10° 232° (SW) 1,779 3.6 -9.0°
Maximum altitude 21:33:28 28° 173° (S) 1,029 1.8 -9.6°
Enters shadow 21:36:18 14° 120° (ESE) 1,555 2.5 -10.0°
